[[{"header":{"parameterUnit":"m.s-1","parameterCategory":1,"la1":30.2991,"la2":30.254,"lo1":-89.0895,"lo2":-89.0444,"dy":0.0017,"dx":0.0017,"nx":28,"ny":28,"refTime":"2025-07-28T09:00:00:Z","depth":0,"parameterNumber":2,"parameterNumberName":"U-component_of_WINDS"},"data":[0,0,0,0,0,0,0,0,0,0,0,0,0,0,0,0,0,0,0,0,0,0,0,0,0,0,0,0,0,0,0,0,0,0,0,0,0,0,0,0,0,0,0,0,0,0,0,0,0,0,0,0,0,0,0,0,0,0,0.8047,0.8048,0,0.8101,0.8102,0.8103,0.8013,0.801,0.8007,0.8004,0.8064,0.8069,0.8073,0,0,0,0,0,0,0,0,0,0,0,0,0,0.7872,0.7876,0.8047,0.8048,0.8049,0.8101,0.8102,0.8103,0.8013,0.801,0.8006,0.8002,0.8063,0.8068,0.8073,0,0,0,0,0,0,0,0,0,0,0,0,0,0.794,0.7877,0.8047,0.801,0.8008,0.8101,0.8102,0.8103,0.8014,0.801,0.8005,0.8001,0.8061,0.8068,0.8074,0.8208,0,0,0.8095,0.8098,0,0,0,0,0,0,0,0,0.7936,0.7946,0.8015,0.8013,0.801,0.8045,0.8062,0.8138,0.8015,0.8012,0.8004,0.7998,0.8062,0.8068,0.8089,0.8211,0.8213,0.8095,0.8099,0.8102,0.8104,0,0,0,0,0,0,0,0.7932,0.7944,0.8069,0.8016,0.8013,0.7993,0.7997,0.8076,0.8062,0.8012,0.8005,0.8013,0.806,0.8083,0.809,0.8214,0.8095,0.8101,0.8105,0.8108,0.8451,0.8456,0,0,0,0,0,0,0.7931,0.794,0.8067,0.807,0.7961,0.8,0.8005,0.8039,0.8061,0.806,0.8017,0.8008,0.8073,0.8082,0.8091,0.8251,0.8102,0.8108,0.8112,0.8446,0.8452,0.8457,0,0,0,0,0,0,0.7927,0.7943,0.8065,0.8004,0.8018,0.8008,0.8047,0.8042,0.8065,0.8065,0.8062,0.8042,0.807,0.8082,0.818,0.8252,0.8111,0.8118,0.844,0.8448,0.8455,0.8571,0,0,0,0,0,0,0.7923,0.7942,0.7992,0.8005,0.8021,0.8151,0.8051,0.8047,0.8076,0.8066,0.8088,0.8087,0.8067,0.817,0.8186,0.8259,0.8123,0.8433,0.8443,0.8452,0.8561,0.8582,0.86,0,0,0,0,0,0.7917,0.8023,0.7994,0.801,0.8082,0.8155,0.8165,0.8138,0.8082,0.8133,0.8133,0.8087,0.8241,0.8181,0.8198,0.8274,0.8429,0.844,0.8451,0.8552,0.8578,0.8599,0,0,0,0,0,0,0.8019,0.8024,0.7993,0.8106,0.8131,0.814,0.8203,0.8166,0.8208,0.8197,0.8164,0.817,0.8275,0.8284,0.8217,0.8406,0.8326,0.8341,0.8396,0.8421,0.844,0.8437,0.8128,0,0,0,0,0,0.8055,0.8112,0.8113,0.8214,0.8227,0.8214,0.8244,0.8221,0.8247,0.8257,0.8264,0.8292,0.8347,0.8384,0.8434,0.8561,0.8566,0.8622,0.8641,0.8657,0.8672,0.8742,0.8768,0.8495,0.8495,0.8495,0,0,0.813,0.8139,0.8177,0.8234,0.8251,0.8313,0.8223,0.8292,0.8339,0.8268,0.8361,0.8368,0.8396,0.851,0.856,0.8521,0.8748,0.8672,0.8684,0.869,0.8756,0.8782,0.8805,0.8503,0.8501,0.85,0,0,0.8298,0.8309,0.8395,0.8414,0.8439,0.8429,0.845,0.8465,0.8467,0.8559,0.8508,0.8563,0.8658,0.8681,0.8705,0.8883,0.8843,0.89,0.9003,0.9072,0.9094,0.9112,0.9179,0.9202,0.8914,0.8915,0.8915,0,0.8388,0.8478,0.8444,0.8517,0.8545,0.8483,0.8571,0.859,0.8632,0.8654,0.8608,0.8726,0.8741,0.886,0.8904,0.8925,0.8949,0.8899,0.9093,0.9111,0.9129,0.9191,0.9216,0.8922,0.8921,0.892,0.8919,0,0.8589,0.8652,0.8718,0.8759,0.8794,0.8874,0.8855,0.8895,0.8869,0.8865,0.8961,0.8976,0.903,0.9055,0.9031,0.9173,0.9147,0.9098,0.9017,0.9162,0.9221,0.9244,0.8932,0.8929,0.8927,0.8925,0,0,0.8824,0.8846,0.8871,0.889,0.8914,0.8963,0.9041,0.9092,0.9128,0.9158,0.9225,0.9307,0.9261,0.9289,0.9267,0.9327,0.947,0.927,0.927,0.9309,0.9629,0.9669,0.9697,0.9442,0.9447,0.945,0.9628,0,0.8994,0.9127,0.91,0.9232,0.9291,0.9233,0.9301,0.9325,0.9323,0.9375,0.9372,0.9432,0.9366,0.9383,0.9439,0.9441,0.9534,0.9427,0.9507,0.951,0.9504,0.9727,0.9768,0.9935,0.965,0.9654,0.9657,0,0.9209,0.9248,0.9385,0.9401,0.9425,0.9487,0.9532,0.9581,0.9608,0.9602,0.9633,0.96,0.968,0.9597,0.9708,0.9636,0.9666,0.9672,0.9678,0.9687,0.9594,0.9744,0.9987,1.0013,0.9692,0.9689,0.9687,0,0.9371,0.9457,0.9551,0.9568,0.9588,0.9634,0.9645,0.9666,0.9699,0.9738,0.976,0.9809,0.9837,0.9876,0.9858,0.9798,0.9974,0.9888,0.9974,0.9975,1.0016,1.0014,1.027,1.0031,1.0031,1.003,1.003,0,0.9565,0.9652,0.9624,0.9682,0.9779,0.9747,0.9844,0.9848,0.9868,0.9927,0.9879,0.9937,0.9907,0.9963,0.9949,1.0045,1.0057,1.0057,1.0053,1.0063,1.0063,1.0085,1.0074,1.0037,1.0035,1.0034,1.0033,0,0.9763,0.9747,0.9846,0.9857,0.9862,0.9933,0.9943,0.9998,0.9992,1.0068,1.0084,1.0076,1.0139,1.0124,1.0193,1.0184,1.0305,1.0285,1.0296,1.0293,1.038,1.0373,1.0661,1.0698,1.0433,1.0435,1.0438,0,0.9889,0.9954,0.9972,1.0008,1.0022,1.008,1.0113,1.0085,1.0122,1.0157,1.0209,1.0267,1.0313,1.0416,1.0418,1.0471,1.0453,1.055,1.0461,1.047,1.0458,1.0456,1.0463,1.0569,1.0572,1.0575,1.0577,0,1.0115,1.0104,1.0152,1.0199,1.024,1.0276,1.0307,1.0339,1.0313,1.0358,1.0421,1.0456,1.0526,1.0586,1.0635,1.0648,1.061,1.0604,1.0627,1.064,1.0645,1.0646,1.0348,1.0599,1.0596,1.0595,1.0594,1.0593,1.0282,1.0339,1.0361,1.0417,1.0437,1.0468,1.0521,1.0521,1.0573,1.0628,1.0608,1.0681,1.0707,1.0768,1.0787,1.0845,1.0809,1.0842,1.0851,1.086,1.0872,1.0633,1.0854,1.0853,1.0853,1.0852,1.0852,0,1.0509,1.0519,1.0571,1.0617,1.0662,1.0619,1.0652,1.0693,1.0758,1.0784,1.0829,1.0904,1.0961,1.0967,1.1022,1.1067,1.1051,1.1083,1.1081,1.1085,1.09,1.0876,1.1095,1.1095,1.1095,1.1095,1.1095,1.1095,1.0632,1.0726,1.0718,1.0822,1.0832,1.0903,1.0926,1.0955,1.0976,1.106,1.1107,1.111,1.1129,1.1185,1.1237,1.1237,1.126,1.13,1.1294,1.1122,1.1098,1.1075,1.1052,1.1304,1.1305,1.1474,1.1475,1.1477]},{"header":{"parameterUnit":"m.s-1","parameterCategory":1,"la1":30.2991,"la2":30.254,"lo1":-89.0895,"lo2":-89.0444,"dy":0.0017,"dx":0.0017,"nx":28,"ny":28,"refTime":"2025-07-28T09:00:00:Z","depth":0,"parameterNumber":3,"parameterNumberName":"V-component_of_WINDS"},"data":[0,0,0,0,0,0,0,0,0,0,0,0,0,0,0,0,0,0,0,0,0,0,0,0,0,0,0,0,0,0,0,0,0,0,0,0,0,0,0,0,0,0,0,0,0,0,0,0,0,0,0,0,0,0,0,0,0,0,-1.4768,-1.4769,0,-1.4805,-1.4805,-1.4806,-1.4896,-1.4897,-1.4899,-1.4901,-1.4937,-1.4936,-1.4936,0,0,0,0,0,0,0,0,0,0,0,0,0,-1.4778,-1.4777,-1.4768,-1.4769,-1.4769,-1.4805,-1.4805,-1.4806,-1.4895,-1.4898,-1.49,-1.4902,-1.4937,-1.4936,-1.4935,0,0,0,0,0,0,0,0,0,0,0,0,0,-1.479,-1.4777,-1.4768,-1.4818,-1.4823,-1.4805,-1.4805,-1.4806,-1.4895,-1.4898,-1.49,-1.4903,-1.4938,-1.4937,-1.4935,-1.4871,0,0,-1.4932,-1.4931,0,0,0,0,0,0,0,0,-1.4789,-1.4789,-1.481,-1.4815,-1.482,-1.4849,-1.4822,-1.4828,-1.4894,-1.4867,-1.4901,-1.4904,-1.4905,-1.4907,-1.4908,-1.4873,-1.4874,-1.4932,-1.4931,-1.493,-1.493,0,0,0,0,0,0,0,-1.4788,-1.4788,-1.4783,-1.4811,-1.4817,-1.4839,-1.4844,-1.4823,-1.487,-1.487,-1.4877,-1.488,-1.4908,-1.4908,-1.4909,-1.4875,-1.4932,-1.493,-1.493,-1.4929,-1.4795,-1.4792,0,0,0,0,0,0,-1.478,-1.4787,-1.4782,-1.4784,-1.4811,-1.4837,-1.4842,-1.4837,-1.487,-1.4878,-1.4877,-1.4884,-1.4909,-1.491,-1.4911,-1.4842,-1.493,-1.4929,-1.4928,-1.4798,-1.4794,-1.4791,0,0,0,0,0,0,-1.478,-1.4779,-1.478,-1.4787,-1.4789,-1.4834,-1.4827,-1.4836,-1.4836,-1.4876,-1.4885,-1.4869,-1.4911,-1.4912,-1.4882,-1.4844,-1.4929,-1.4928,-1.4801,-1.4797,-1.4793,-1.47,0,0,0,0,0,0,-1.478,-1.4778,-1.4753,-1.4786,-1.4789,-1.4749,-1.4824,-1.4834,-1.4834,-1.4843,-1.487,-1.4877,-1.4914,-1.4883,-1.488,-1.4844,-1.4927,-1.4805,-1.4799,-1.4794,-1.4707,-1.4693,-1.4682,0,0,0,0,0,-1.478,-1.4724,-1.4751,-1.475,-1.4759,-1.4747,-1.4749,-1.4792,-1.483,-1.4807,-1.4833,-1.4877,-1.4848,-1.4879,-1.4877,-1.4839,-1.4807,-1.4801,-1.4795,-1.4712,-1.4696,-1.4682,0,0,0,0,0,0,-1.4684,-1.4729,-1.476,-1.4713,-1.4726,-1.4762,-1.4733,-1.4772,-1.4773,-1.4781,-1.4835,-1.484,-1.4803,-1.4818,-1.4852,-1.4782,-1.4835,-1.4828,-1.4773,-1.4758,-1.4746,-1.4744,-1.4926,0,0,0,0,0,-1.4658,-1.4644,-1.4685,-1.464,-1.4645,-1.4688,-1.4684,-1.4717,-1.4732,-1.4737,-1.4762,-1.4774,-1.4769,-1.4764,-1.4761,-1.4709,-1.4719,-1.4683,-1.467,-1.466,-1.4653,-1.4632,-1.4617,-1.477,-1.477,-1.4771,0,0,-1.4602,-1.4626,-1.4614,-1.4621,-1.4635,-1.4622,-1.4691,-1.4673,-1.4664,-1.4734,-1.4708,-1.4726,-1.4745,-1.4704,-1.4688,-1.4716,-1.4613,-1.4651,-1.4643,-1.4642,-1.4624,-1.4609,-1.4596,-1.4766,-1.4767,-1.4768,0,0,-1.4496,-1.4511,-1.4478,-1.4491,-1.4511,-1.4541,-1.4533,-1.4564,-1.458,-1.4555,-1.4609,-1.4599,-1.4587,-1.46,-1.4604,-1.4507,-1.4549,-1.4505,-1.4439,-1.4417,-1.4406,-1.4395,-1.4364,-1.4352,-1.4498,-1.4498,-1.4497,0,-1.4425,-1.4407,-1.4455,-1.4435,-1.4438,-1.4503,-1.4471,-1.4481,-1.4499,-1.45,-1.4531,-1.4521,-1.4538,-1.4504,-1.4481,-1.4481,-1.4475,-1.4502,-1.4403,-1.4393,-1.4385,-1.4356,-1.4343,-1.4492,-1.4493,-1.4493,-1.4494,0,-1.432,-1.4307,-1.4277,-1.4296,-1.4296,-1.4269,-1.4315,-1.4309,-1.4342,-1.4369,-1.4345,-1.4368,-1.4372,-1.4366,-1.4397,-1.4338,-1.4355,-1.4394,-1.4449,-1.4364,-1.4338,-1.4327,-1.4485,-1.4487,-1.4488,-1.449,0,0,-1.4153,-1.4201,-1.419,-1.4201,-1.423,-1.4221,-1.4199,-1.4205,-1.4201,-1.4212,-1.4197,-1.4187,-1.4225,-1.423,-1.4264,-1.4245,-1.4172,-1.4287,-1.4288,-1.4267,-1.4112,-1.4084,-1.407,-1.4199,-1.4197,-1.4195,-1.4111,0,-1.4055,-1.4021,-1.4066,-1.4022,-1.4012,-1.4076,-1.4057,-1.4074,-1.41,-1.4096,-1.4124,-1.4119,-1.4166,-1.4171,-1.4154,-1.4184,-1.4141,-1.419,-1.4187,-1.4187,-1.4183,-1.4056,-1.4026,-1.3945,-1.4101,-1.4099,-1.4098,0,-1.3936,-1.3945,-1.39,-1.3937,-1.3935,-1.3917,-1.3929,-1.3924,-1.3946,-1.3966,-1.3974,-1.4015,-1.3999,-1.4051,-1.4031,-1.4063,-1.4065,-1.4079,-1.4077,-1.408,-1.4138,-1.4058,-1.392,-1.3909,-1.4082,-1.4083,-1.4084,0,-1.3823,-1.3823,-1.3798,-1.3805,-1.3845,-1.3833,-1.3849,-1.3874,-1.3876,-1.3886,-1.3889,-1.3896,-1.3901,-1.3906,-1.395,-1.3983,-1.3925,-1.398,-1.3943,-1.3942,-1.3929,-1.393,-1.3792,-1.3926,-1.3926,-1.3926,-1.3926,0,-1.3711,-1.3682,-1.3748,-1.3732,-1.3703,-1.3756,-1.3726,-1.3749,-1.3771,-1.3763,-1.3817,-1.3808,-1.3865,-1.3863,-1.3897,-1.3877,-1.3877,-1.3895,-1.3905,-1.3891,-1.3889,-1.3894,-1.3902,-1.3923,-1.3924,-1.3924,-1.3925,0,-1.3579,-1.3621,-1.3599,-1.3641,-1.3651,-1.3628,-1.3665,-1.3654,-1.3684,-1.3673,-1.3673,-1.3721,-1.3722,-1.3766,-1.3774,-1.3798,-1.3765,-1.3783,-1.3757,-1.3764,-1.3726,-1.373,-1.3589,-1.3575,-1.3714,-1.3713,-1.3712,0,-1.3505,-1.3486,-1.3527,-1.3526,-1.354,-1.3537,-1.3541,-1.3593,-1.3595,-1.3621,-1.3607,-1.3612,-1.362,-1.3618,-1.3654,-1.3662,-1.3684,-1.3634,-1.3685,-1.3674,-1.3687,-1.3689,-1.3689,-1.3623,-1.3621,-1.362,-1.3618,0,-1.3372,-1.3395,-1.3399,-1.3411,-1.3414,-1.3425,-1.344,-1.3436,-1.3494,-1.3494,-1.3496,-1.3502,-1.3513,-1.3519,-1.3535,-1.3554,-1.3596,-1.3602,-1.3595,-1.3582,-1.3569,-1.3579,-1.3731,-1.3605,-1.3606,-1.3607,-1.3608,-1.3609,-1.3269,-1.3256,-1.3285,-1.3288,-1.3306,-1.3319,-1.3312,-1.3343,-1.3346,-1.336,-1.3391,-1.3389,-1.3416,-1.3442,-1.3457,-1.3458,-1.3483,-1.3471,-1.3469,-1.3466,-1.346,-1.3568,-1.346,-1.3461,-1.3461,-1.3462,-1.3462,0,-1.3142,-1.3164,-1.3167,-1.3188,-1.3191,-1.3232,-1.3252,-1.3252,-1.3251,-1.3272,-1.3279,-1.3284,-1.3291,-1.3329,-1.3341,-1.3335,-1.3355,-1.3336,-1.3338,-1.3343,-1.3435,-1.3442,-1.332,-1.332,-1.332,-1.332,-1.332,-1.332,-1.3076,-1.3057,-1.3085,-1.3077,-1.3099,-1.3099,-1.3108,-1.3122,-1.314,-1.3143,-1.315,-1.3175,-1.3204,-1.322,-1.3229,-1.324,-1.3243,-1.3219,-1.3237,-1.3322,-1.3336,-1.3349,-1.3356,-1.3218,-1.3218,-1.3145,-1.3145,-1.3144]}]]